ASAHIKAWA_AIRPORT current weather conditions

sailwx.info

Wind from 050 at 2 knots

Air temperature -10.0° C
Visibility: greater than 2.7 NM
Dewpoint -11.0° C
Present weather: Light snow showers.

Last reported at 2020-Jan-25 11:29 UTC.
Time now 2020-Jan-25 14:37 UTC

Location: N 43°40' E 142°26'.
View on Google Maps.

See reports from other nearby stations

  
Tides and Currents Weather Stations Pressure Air Temp Water Temp Dewpoint Dewpoint Depression Visibility Wind Speed Wind Dir Waves Ship Positions
date/time (UTC)wind fromknots sea level pressurealtimeterstation pressurevisibilityair tempwater tempwave heightnotes
2020-Jan-25 11:29 050 2 2.7-10.0 Light snow showers.
2020-Jan-25 11:25 050 2 1.7-10.0 Light snow showers.
2020-Jan-25 11:15 060 4 1.3-10.0 Light snow showers.
2020-Jan-25 11:00 020 4 1.1-10.0 Light snow showers.
2020-Jan-25 10:16 030 6 1.1-10.0 Light snow showers.
2020-Jan-25 10:09 040 5 0.8-10.0 Light snow showers.
2020-Jan-25 10:00 050 5 0.5-10.0 Light snow showers.
2020-Jan-25 09:43 040 2 0.5-10.0 Snow showers.
2020-Jan-25 09:31 050 2 0.8-10.0 Light snow showers.
2020-Jan-25 09:24 030 2 0.8-10.0 Light snow showers.
2020-Jan-25 09:19 030 4 0.5-10.0 Light snow showers.
2020-Jan-25 09:04 040 5 0.5-10.0 Snow showers.
2020-Jan-25 09:00 040 5 0.8-9.0 Light snow showers.
2020-Jan-25 08:48 030 5 0.8-10.0 Light snow showers.
2020-Jan-25 08:40 020 5 0.8-10.0 Light snow showers.
2020-Jan-25 08:37 020 5 1.2-9.0 Light snow showers.
2020-Jan-25 08:31 010 6 1.3-9.0 Light snow showers.
2020-Jan-25 08:26 360 6 0.8-9.0 Light snow showers.
2020-Jan-25 08:16 360 6 0.5-9.0 Light snow showers.
2020-Jan-25 08:14 360 6 0.5-9.0 Snow showers.
2020-Jan-25 08:10 360 7 0.2-9.0 Snow showers.
2020-Jan-25 08:04 350 9 0.1-9.0 Snow showers.
2020-Jan-25 08:00 360 9 0.2-9.0 Snow showers.
2020-Jan-25 07:50 360 8 0.5-9.0 Snow showers.
2020-Jan-25 07:36 340 11 0.8-8.0 Light snow showers.
2020-Jan-25 07:30 300 6 1.2-8.0 Light snow showers.
2020-Jan-25 07:09 270 5 1.3-8.0 Light snow showers.
2020-Jan-25 07:00 270 6 1.1-8.0 Light snow showers.
2020-Jan-25 06:41 280 7 1.2-8.0 Light snow showers.
2020-Jan-25 06:00 300 6 1.3-8.0 Light snow showers.
2020-Jan-25 05:45 290 12 0.8-8.0 Light snow showers.
2020-Jan-25 05:43 290 13 1.2-8.0 Light snow showers.
2020-Jan-25 05:37 290 13 2.6-8.0 Light snow showers.
2020-Jan-25 05:23 290 12 2.7-8.0 Light snow showers.
2020-Jan-25 05:06 300 12 2.6-8.0 Light snow showers.
2020-Jan-25 05:00 300 11 2.7-8.0 Light snow showers.
2020-Jan-25 04:24 310 6 2.7-8.0 Light snow showers.
2020-Jan-25 04:09 320 7 2.6-8.0 Light snow showers.
2020-Jan-25 04:00 290 4 3.2-8.0 Light snow showers.
2020-Jan-25 03:00 5.4-8.0 Showers in the vicinity.
2020-Jan-25 02:00 280 6 4.9-9.0 Light snow showers.
2020-Jan-25 01:00 280 6 4.3-9.0 Light snow showers.
2020-Jan-25 00:00 280 9 5.4-10.0 Light snow showers.
2020-Jan-24 23:00 280 7 4.9-10.0 Light snow showers.
2020-Jan-24 22:00 290 9 2.7-10.0 Light snow showers.
2020-Jan-24 21:46 290 12 2.6-10.0 Light snow showers.
2020-Jan-24 21:40 290 12 3.2-10.0 Light snow showers.
2020-Jan-24 11:42 260 6 2.7-9.0 Light snow showers.
2020-Jan-24 11:32 280 6 2.2-9.0 Light snow showers.
2020-Jan-24 11:07 290 7 1.6-9.0 Light snow showers.
2020-Jan-24 11:00 280 11 1.1-9.0 Light snow showers.
2020-Jan-24 10:36 290 13 0.5-9.0 Light snow showers.
2020-Jan-24 10:25 290 13 0.5-9.0 Snow showers.
2020-Jan-24 10:23 280 13 gusting 22 0.8-8.0 Light snow showers.
2020-Jan-24 10:17 270 12 1.1-8.0 Light snow showers.
2020-Jan-24 10:00 270 8 1.9-9.0 Light snow showers.
2020-Jan-24 09:42 280 12 1.1-8.0 Light snow showers.
2020-Jan-24 09:30 280 7 1.9-9.0 Light snow showers.
2020-Jan-24 09:00 270 5 1.1-9.0 Light snow showers.
2020-Jan-24 08:49 300 2 0.5-9.0 Light snow showers.
2020-Jan-24 08:29 260 5 0.4-9.0 Snow showers.
2020-Jan-24 08:14 290 6 0.5-9.0 Snow showers.
2020-Jan-24 08:00 290 7 0.6-8.0 Light snow showers.
2020-Jan-24 07:46 290 12 0.5-8.0 Light snow showers.
2020-Jan-24 07:34 290 14 0.3-8.0 Snow showers.
2020-Jan-24 07:12 310 18 0.1-8.0 Snow showers. Blowing snow.
2020-Jan-24 07:07 310 8 0.1-8.0 Snow showers.
2020-Jan-24 07:00 300 8 0.3-8.0 Snow showers.
2020-Jan-24 06:38 290 12 0.5-7.0 Snow showers.
2020-Jan-24 06:35 280 11 0.8-7.0 Light snow showers.
2020-Jan-24 06:32 270 11 1.1-7.0 Light snow showers.
2020-Jan-24 06:19 270 13 1.6-7.0 Light snow showers.
2020-Jan-24 06:10 250 12 2.6-6.0 Light snow showers.
2020-Jan-24 06:00 250 9 4.9-6.0 Light snow showers.
2020-Jan-24 05:00 270 9 5.4-6.0 Light snow showers.
2020-Jan-24 04:46 260 6 2.7-6.0 Light snow showers.
2020-Jan-24 04:37 250 4 1.7-7.0 Light snow showers.
2020-Jan-24 04:30 240 5 1.3-6.0 Light snow showers.
2020-Jan-24 04:26 250 5 1.1-7.0 Light snow showers.
2020-Jan-24 04:00 290 13 1.2-6.0 Light snow showers.
2020-Jan-24 03:48 300 13 1.3-6.0 Light snow showers.
2020-Jan-24 03:25 290 15 0.8-6.0 Light snow showers. Blowing snow.
2020-Jan-24 03:18 280 17 0.4-6.0 Snow showers. Blowing snow.
2020-Jan-24 03:12 290 13 gusting 24 0.5-6.0 Snow showers.
2020-Jan-24 03:00 290 12 0.8-6.0 Light snow showers.
2020-Jan-24 02:45 290 9 1.7-5.0 Light snow showers.
2020-Jan-24 02:39 290 11 0.9-5.0 Light snow showers.
2020-Jan-24 02:35 290 11 0.4-5.0 Snow showers.
2020-Jan-24 02:07 300 15 0.3-5.0 Snow showers. Blowing snow.
2020-Jan-24 02:00 290 15 0.2-5.0 Snow showers.
2020-Jan-24 01:45 300 15 0.4-5.0 Snow showers.
2020-Jan-24 01:39 300 14 0.3-5.0 Snow showers.
2020-Jan-24 01:33 300 9 0.4-4.0 Snow showers.
2020-Jan-24 01:30 300 6 0.5-4.0 Light snow showers.
2020-Jan-24 01:00 160 6 0.5-5.0 Snow showers.
2020-Jan-24 00:34 160 9 0.5-5.0 Snow showers.
2020-Jan-24 00:29 160 8 0.8-5.0 Light snow showers.
2020-Jan-24 00:12 160 9 1.3-5.0 Light snow showers.
2020-Jan-24 00:00 170 9 0.6-5.0 Light snow showers.
2020-Jan-23 23:47 160 9 1.0-5.0 Light snow showers.
2020-Jan-23 23:21 160 12 1.7-6.0 Light snow showers.
2020-Jan-23 23:14 160 11 0.8-6.0 Light snow showers.
2020-Jan-23 23:04 160 8 0.5-7.0 Snow showers.
2020-Jan-23 23:02 160 8 0.8-7.0 Light snow showers.
2020-Jan-23 23:00 160 7 1.2-7.0 Light snow showers.
2020-Jan-23 22:49 170 6 1.6-7.0 Light snow showers.
2020-Jan-23 22:29 180 6 2.6-7.0 Light snow showers.
2020-Jan-23 22:00 170 13 5.4-7.0 Showers in the vicinity.
2020-Jan-23 21:40 170 12 5.4-8.0 Showers in the vicinity.